Date String (YYYY-MM-DD hh:mm:ss) UTC,Instrument flags,absolute air pressure of the measurement (hPa),sample flow rate (lpm),inlet stack bypass flow (lpm),air temperature of the measurement (°C),ambient temperature measured by the external sensor (°C),aerosol sample conditioner tube jacket temperature (°C),OPC LED temperature (°C),internal box temperature (°C),relative humidity of the measurement (%),span deviation,mass concentration of particles derived from Lorenz-Mie calculation of OPC scattering (μg/m³),mass concentration of particles derived from Lorenz-Mie calculation of OPC scattering (μg/m³),mass concentration of particles derived from Lorenz-Mie calculation of OPC scattering (μg/m³)
DateTimeUTC,F1_M11,P_M11,Q1_M11,Q2_M11,T1_M11,T2_M11,T3_M11,T4_M11,T5_M11,U1_M11,ZSPAN_M11,X0_M11,X2_M11,X1_M11
2023-10-25 08:00:00,SystemResetWarning,0827.7,5.00,000.00,028.8,027.2,000.0,037.3,030.4,18.4,0000.0,0015.15,0006.04,0004.25
2023-10-25 08:01:00,SystemResetWarning,0827.7,5.00,000.00,028.8,027.2,000.0,037.3,030.4,18.4,0000.0,0015.12,0006.05,0004.24
2023-10-25 08:02:00,SystemResetWarning,0827.7,5.00,000.00,028.8,027.2,000.0,037.3,030.4,18.4,0000.0,0016.13,0006.05,0004.24
2023-10-25 08:03:00,SystemResetWarning,0827.7,5.00,000.00,028.8,027.2,000.0,037.3,030.4,18.6,0000.0,0017.37,0006.06,0004.24
2023-10-25 08:04:00,SystemResetWarning,0827.7,5.00,000.00,028.8,027.2,000.0,037.3,030.4,18.7,0000.0,0016.67,0006.06,0004.24
2023-10-25 08:05:00,SystemResetWarning,0827.7,5.00,000.00,028.8,027.2,000.0,037.3,030.4,18.8,0000.0,0016.62,0005.96,0004.23
2023-10-25 08:06:00,SystemResetWarning,0827.7,5.00,000.00,028.8,027.2,000.0,037.3,030.4,18.8,0000.0,0016.52,0005.89,0004.23
2023-10-25 08:07:00,SystemResetWarning,0827.7,5.00,000.00,028.8,027.2,000.0,037.3,030.4,18.7,0000.0,0016.42,0005.86,0004.22
2023-10-25 08:08:00,SystemResetWarning,0827.7,5.00,000.00,028.8,027.2,000.0,037.3,030.4,18.8,0000.0,0015.64,0005.80,0004.23
2023-10-25 08:09:00,SystemResetWarning,0827.7,5.00,000.00,028.8,027.2,000.0,037.2,030.4,18.9,0000.0,0015.24,0005.77,0004.24
2023-10-25 08:10:00,SystemResetWarning,0827.7,5.00,000.00,028.8,027.2,000.0,037.2,030.4,18.7,0000.0,0015.15,0005.75,0004.24
2023-10-25 08:11:00,SystemResetWarning,0827.7,5.00,000.00,028.8,027.2,000.0,037.2,030.4,18.6,0000.0,0016.09,0005.81,0004.23
2023-10-25 08:12:00,SystemResetWarning,0827.7,4.99,000.00,028.8,027.2,000.0,037.2,030.4,18.5,0000.0,0016.05,0005.81,0004.23
2023-10-25 08:13:00,SystemResetWarning,0827.7,4.99,000.00,028.8,027.2,000.0,037.2,030.4,18.4,0000.0,0015.43,0005.78,0004.24
2023-10-25 08:14:00,SystemResetWarning,0827.7,4.99,000.00,028.8,027.2,000.0,037.2,030.4,18.3,0000.0,0013.73,0005.74,0004.23
2023-10-25 08:15:00,SystemResetWarning,0827.7,5.00,000.00,028.8,027.2,000.0,037.2,030.4,18.3,0000.0,0013.30,0005.74,0004.23
2023-10-25 08:16:00,SystemResetWarning,0827.7,5.00,000.00,028.8,027.2,000.0,037.2,030.4,18.4,0000.0,0012.98,0005.82,0004.25
2023-10-25 08:17:00,SystemResetWarning,0827.7,5.00,000.00,028.8,027.2,000.0,037.2,030.4,18.5,0000.0,0012.72,0005.86,0004.25
2023-10-25 08:18:00,SystemResetWarning,0827.7,5.00,000.00,028.7,027.2,000.0,037.2,030.4,18.6,0000.0,0012.71,0005.84,0004.25
2023-10-25 08:19:00,SystemResetWarning,0827.7,5.00,000.00,028.7,027.2,000.0,037.2,030.4,18.7,0000.0,0012.54,0005.85,0004.24
2023-10-25 08:20:00,SystemResetWarning,0827.7,5.00,000.00,028.7,027.2,000.0,037.2,030.3,19.0,0000.0,0012.59,0005.88,0004.23
2023-10-25 08:21:00,SystemResetWarning,0827.7,5.00,000.00,028.7,027.2,000.0,037.2,030.4,19.3,0000.0,0013.45,0005.91,0004.23
2023-10-25 08:22:00,SystemResetWarning,0827.7,5.00,000.00,028.7,027.2,000.0,037.3,030.4,19.5,0000.0,0013.46,0005.88,0004.22
2023-10-25 08:23:00,SystemResetWarning,0827.7,5.00,000.00,028.7,027.2,000.0,037.3,030.3,19.5,0000.0,0014.24,0005.93,0004.21
2023-10-25 08:24:00,SystemResetWarning,0827.6,5.00,000.00,028.7,027.2,000.0,037.2,030.4,19.5,0000.0,0014.27,0005.91,0004.21
2023-10-25 08:25:00,SystemResetWarning,0827.6,5.00,000.00,028.7,027.2,000.0,037.2,030.3,19.5,0000.0,0014.17,0005.90,0004.22
2023-10-25 08:26:00,SystemResetWarning,0827.5,4.99,000.00,028.7,027.2,000.0,037.2,030.3,19.6,0000.0,0014.20,0005.87,0004.21
2023-10-25 08:27:00,SystemResetWarning,0827.6,4.99,000.00,028.7,027.1,000.0,037.2,030.4,19.6,0000.0,0014.11,0005.81,0004.20
2023-10-25 08:28:00,SystemResetWarning,0827.6,5.00,000.00,028.7,027.1,000.0,037.2,030.4,19.6,0000.0,0014.14,0005.80,0004.18
2023-10-25 08:29:00,SystemResetWarning,0827.7,5.00,000.00,028.7,027.2,000.0,037.2,030.4,19.6,0000.0,0014.21,0005.81,0004.17
2023-10-25 08:30:00,SystemResetWarning,0827.7,5.00,000.00,028.7,027.2,000.0,037.2,030.4,19.5,0000.0,0014.35,0005.83,0004.17
2023-10-25 08:31:00,SystemResetWarning,0827.7,5.01,000.00,028.7,027.2,000.0,037.2,030.4,19.4,0000.0,0014.35,0005.79,0004.16
2023-10-25 08:32:00,SystemResetWarning,0827.7,5.01,000.00,028.7,027.2,000.0,037.2,030.4,19.3,0000.0,0014.22,0005.75,0004.16
2023-10-25 08:33:00,SystemResetWarning,0827.7,5.01,000.00,028.7,027.2,000.0,037.2,030.4,19.3,0000.0,0013.50,0005.71,0004.17
2023-10-25 08:34:00,SystemResetWarning,0827.6,5.01,000.00,028.7,027.2,000.0,037.2,030.4,19.2,0000.0,0013.07,0005.63,0004.16
2023-10-25 08:35:00,SystemResetWarning,0827.6,5.00,000.00,028.7,027.2,000.0,037.2,030.4,19.2,0000.0,0013.15,0005.63,0004.16
2023-10-25 08:36:00,SystemResetWarning,0827.5,4.99,000.00,028.7,027.2,000.0,037.2,030.4,19.1,0000.0,0013.70,0005.63,0004.15
2023-10-25 08:37:00,SystemResetWarning,0827.5,5.00,000.00,028.7,027.2,000.0,037.2,030.4,19.1,0000.0,0014.00,0005.63,0004.16
2023-10-25 08:38:00,SystemResetWarning,0827.5,4.99,000.00,028.7,027.2,000.0,037.2,030.4,19.2,0000.0,0014.09,0005.64,0004.16
2023-10-25 08:39:00,SystemResetWarning,0827.5,5.00,000.00,028.8,027.2,000.0,037.2,030.4,19.3,0000.0,0014.01,0005.66,0004.18
2023-10-25 08:40:00,SystemResetWarning,0827.5,5.00,000.00,028.8,027.2,000.0,037.2,030.4,19.3,0000.0,0014.10,0005.66,0004.18
2023-10-25 08:41:00,SystemResetWarning,0827.5,5.00,000.00,028.8,027.2,000.0,037.2,030.4,19.3,0000.0,0014.46,0005.69,0004.19
2023-10-25 08:42:00,SystemResetWarning,0827.6,5.00,000.00,028.8,027.2,000.0,037.2,030.4,19.3,0000.0,0015.38,0005.72,0004.19
2023-10-25 08:43:00,SystemResetWarning,0827.6,5.00,000.00,028.8,027.2,000.0,037.2,030.4,19.3,0000.0,0015.97,0005.73,0004.20
2023-10-25 08:44:00,SystemResetWarning,0827.6,5.00,000.00,028.8,027.2,000.0,037.2,030.4,19.3,0000.0,0016.01,0005.77,0004.21
2023-10-25 08:45:00,SystemResetWarning,0827.6,5.01,000.00,028.8,027.3,000.0,037.2,030.4,19.2,0000.0,0015.62,0005.78,0004.21
2023-10-25 08:46:00,SystemResetWarning,0827.6,5.00,000.00,028.8,027.3,000.0,037.2,030.4,19.1,0000.0,0015.52,0005.74,0004.21
2023-10-25 08:47:00,SystemResetWarning,0827.6,4.99,000.00,028.8,027.3,000.0,037.2,030.4,19.0,0000.0,0015.66,0005.76,0004.21
2023-10-25 08:48:00,SystemResetWarning,0827.6,5.00,000.00,028.8,027.3,000.0,037.2,030.4,18.9,0000.0,0015.54,0005.82,0004.22
2023-10-25 08:49:00,SystemResetWarning,0827.6,4.99,000.00,028.8,027.3,000.0,037.2,030.4,18.7,0000.0,0015.69,0005.83,0004.21
2023-10-25 08:50:00,SystemResetWarning,0827.6,5.00,000.00,028.8,027.3,000.0,037.2,030.4,18.6,0000.0,0016.21,0005.83,0004.20
2023-10-25 08:51:00,SystemResetWarning,0827.7,4.99,000.00,028.8,027.3,000.0,037.2,030.4,18.5,0000.0,0015.95,0005.81,0004.21
2023-10-25 08:52:00,SystemResetWarning,0827.7,5.00,000.00,028.8,027.3,000.0,037.2,030.4,18.5,0000.0,0015.44,0005.76,0004.21
2023-10-25 08:53:00,SystemResetWarning,0827.7,5.01,000.00,028.8,027.3,000.0,037.2,030.4,18.5,0000.0,0014.55,0005.73,0004.21
2023-10-25 08:54:00,SystemResetWarning,0827.7,5.01,000.00,028.8,027.3,000.0,037.2,030.4,18.4,0000.0,0013.60,0005.73,0004.20
2023-10-25 08:55:00,SystemResetWarning,0827.7,5.01,000.00,028.8,027.3,000.0,037.3,030.4,18.5,0000.0,0013.82,0005.75,0004.19
2023-10-25 08:56:00,SystemResetWarning,0827.7,4.99,000.00,028.8,027.3,000.0,037.2,030.4,18.6,0000.0,0014.38,0005.85,0004.19
2023-10-25 08:57:00,SystemResetWarning,0827.7,5.00,000.00,028.8,027.3,000.0,037.2,030.4,18.5,0000.0,0014.57,0005.94,0004.21
2023-10-25 08:58:00,SystemResetWarning,0827.7,5.00,000.00,028.8,027.3,000.0,037.2,030.5,18.3,0000.0,0013.77,0006.02,0004.23
2023-10-25 08:59:00,SystemResetWarning,0827.7,5.00,000.00,028.8,027.3,000.0,037.2,030.5,18.1,0000.0,0013.80,0006.00,0004.24
